Regional Weather Roundup
Issued by NWS Upton, NY

Home | Current Version | Previous Version | Text Only | Print | Product List | Glossary On
Versions: 1 2 3 4 5 6 7 8 9 10 11 12 13 14 15 16 17 18 19 20 21 22 23 24 25 26 27 28 29 30 31 32 33 34 35 36 37 38 39 40 41 42 43 44 45 46 47 48 49 50
000
ASUS41 KOKX 041504
RWROKX

REGIONAL WEATHER ROUNDUP
NATIONAL WEATHER SERVICE NEW YORK NY
1100 AM EDT FRI SEP 04 2015

NOTE: "FAIR" INDICATES FEW OR NO CLOUDS BELOW 12,000 FEET WITH NO
SIGNIFICANT WEATHER AND/OR OBSTRUCTIONS TO VISIBILITY.

NYZ071-072-176-178-NJZ106-104-041600-
NEW YORK CITY METRO AREA


CITY           SKY/WX    TMP DP  RH WIND       PRES   REMARKS
CENTRAL PARK   PTSUNNY   79  67  66 E10G22    30.10R
LAGUARDIA APRT PTSUNNY   80  67  64 NE20      30.07R
KENNEDY INTL   PTSUNNY   82  67  60 NE14      30.07R
NEWARK/LIBERTY PTSUNNY   82  68  62 NE14      30.07R
BRNX BOT. GARD   N/A     75  66  73 N3        30.11R
TETERBORO      CLOUDY    80  66  62 E13G20    30.06R
$$

NYZ177-179-078>081-041600-
LONG ISLAND NEW YORK

CITY           SKY/WX    TMP DP  RH WIND       PRES   REMARKS
FARMINGDALE    CLOUDY    79  66  64 E15       30.07R
ISLIP          CLOUDY    77  67  71 E15       30.07R
SHIRLEY        CLOUDY    76  67  73 VRB6      30.09R
WESTHAMPTON    CLOUDY    75  67  76 E12       30.10R
MONTAUK POINT    N/A     75  65  70 NE9G18    30.10R
$$

NYZ052-065-067-041600-
HUDSON VALLEY

CITY           SKY/WX    TMP DP  RH WIND       PRES   REMARKS
WHITE PLAINS   PTSUNNY   78  67  68 E8        30.09R
NEWBURGH       PTSUNNY   77  66  69 E7        30.12R
MONTGOMERY     CLOUDY    79  64  60 NE8       30.11R
POUGHKEEPSIE   CLOUDY    77  63  61 N6        30.10R
ALBANY         PTSUNNY   74  58  57 VRB3      30.14R
$$

NJZ001-105-106-008-010-013-015-019>022-104-041600-
NEW JERSEY

CITY           SKY/WX    TMP DP  RH WIND       PRES   REMARKS
NEWARK/LIBERTY PTSUNNY   82  68  62 NE14      30.07R
TETERBORO      CLOUDY    80  66  62 E13G20    30.06R
CALDWELL       PTSUNNY   79  66  64 E13G18    30.08R
MORRISTOWN     PTSUNNY   82  70  65 E12G17    30.08R
SOMERVILLE     MOSUNNY   84  68  58 VRB7      30.05R
SUSSEX         MOSUNNY   78  65  63 NE9       30.10R
ANDOVER          N/A     80  68  66 VRB3      30.09R
TRENTON        MOSUNNY   84  70  62 E13       30.04R
MILLVILLE      SUNNY     86  65  49 VRB6      30.02R
ATLANTIC CITY  NOT AVBL
WRIGHTSTOWN    MOSUNNY   83  73  70 NE13      30.02R
TOMS RIVER     MOSUNNY   82  70  65 NE13      30.05R
BELMAR         CLOUDY    75  66  73 E13       30.07R
$$

PAZ047>061-062-071-041600-
EASTERN PENNSYLVANIA

CITY           SKY/WX    TMP DP  RH WIND       PRES   REMARKS
PHILADELPHIA   MOSUNNY   87  68  52 E9        30.03R HX  90
ALLENTOWN      SUNNY     82  68  62 NE8       30.07R
SCRANTON       PTSUNNY   81  67  62 E5        30.10R
$$

CTZ002-004>006-009-010-012-RIZ004-006-007-MAZ004-011-015-041600-
SOUTHERN NEW ENGLAND
 IN CT

CITY           SKY/WX    TMP DP  RH WIND       PRES   REMARKS
BRADLEY INTL   PTSUNNY   76  55  48 NE13      30.13R
HARTFORD       MOSUNNY   77  60  55 NE10G20   30.12R
DANBURY        CLOUDY    76  65  68 E8        30.12R
WTRBRY/OXFORD  PTSUNNY   73  63  68 NE6       30.14R
BRIDGEPORT     CLOUDY    79  68  69 E12       30.09R
MERIDEN        PTSUNNY   79  64  60 NE9       30.11R
NEW HAVEN      PTSUNNY   80  66  62 NE9       30.09S
CHESTER        NOT AVBL
GROTON         MOSUNNY   78  65  63 NE14      30.09R
WILLIMANTIC    PTSUNNY   75  59  57 NE14      30.14R

 IN RI

CITY           SKY/WX    TMP DP  RH WIND       PRES   REMARKS
PROVIDENCE     PTSUNNY   75  59  57 NE17      30.14R
BLOCK ISLAND   CLOUDY    72  66  83 NE13G20   30.10S
WESTERLY       PTSUNNY   75  62  64 NE9       30.11R

 IN MA

CITY           SKY/WX    TMP DP  RH WIND       PRES   REMARKS
BOSTON         CLOUDY    68  55  63 NE12      30.18R
WORCESTER      MOSUNNY   68  52  56 NE12G20   30.18R
WESTFIELD      MOSUNNY   76  56  49 N8        30.14R
PROVINCETOWN     N/A     70  63  78 NE12G18   30.15R
NANTUCKET      SUNNY     75  64  68 E14G26    30.09R
$$

ANZ330-335-338-340-345-350-353-355-041600-
COASTAL MARINE OBSERVATIONS


STATION/POSITION TIME  SKY/WX   TEMP    WIND        PRES    VSBY  WAVE
                                AIR SEA DIR/SP/G                  HT/PER
                 (UTC)          (F)     (DEG/KT/KT) (MB)    (MI)  (FT/S)
NY HARB ENTRANCE 1350            74 77   70/ 19/ 23 1016.5          2/ 3
4S FIRE IS       NOT AVBL
20S FIRE ISLAND  1350            74 76   60/ 16/ 17 1016.5          2/ 3
GREAT SOUTH BAY  1415            75 80   90/ 17/ 19   N/A
23SW MTP         1450            72 74   60/ 19/ 21 1017.5          4/ 4
HUDSON CANYON    NOT AVBL
KINGS POINT      1400            76 75   50/  5/ 11 1017.2
EXECUTION ROCKS  1400            75      70/ 16/ 21   N/A
CENTRAL LI SOUND NOT AVBL
EASTERN LI SOUND 1400            73 71   50/ 14/ 19   N/A
ROBBINS REEF     1400            77      40/ 13/ 16 1016.4
$$


>>>>>>>>>>>>>>>>>>>>>>>>>>>> KEY <<<<<<<<<<<<<<<<<<<<<<<<<<<
>                                                          <
>     SKY/WX - SKY CONDITION/PRESENT WEATHER               <
>     TMP    - TEMPERATURE IN FAHRENHEIT                   <
>     DP     - DEWPOINT IN FAHRENHEIT                      <
>     RH     - RELATIVE HUMIDITY IN PERCENT                <
>     WIND   - DIRECTION AND SPEED IN MPH                  <
>     PRES   - MEAN SEA LEVEL PRESSURE IN INCHES OF HG     <
>     WCI    - WIND CHILL INDEX                            <
>     VSB    - VISIBILITY IN MILES                         <
>     HX     - HEAT INDEX                                  <
>     TC     - TEMPERATURE IN CELSIUS                      <
>     VRB    - VARIABLE WIND DIRECTION                     <
>                                                          <
>>>>>>>>>>>>>>>>>>>>>>>>>>>> KEY <<<<<<<<<<<<<<<<<<<<<<<<<<<




USA.gov is the U.S. government's official web portal to all federal, state and local government web resources and services.